STARLINK-32667, 62201

Orbit data source: Space-Track

STARLINK-32667, 62201 is a payload satellite owned by SpaceX/Seattle (US) in LEO that was launched on Wed, 04 Dec 2024 UTC via an FALCON 9 launch vehicle from the Air Force Eastern Test Range (AFETR). Payload-class satellites include a variety of spacecraft equipped with specific instruments for various scientific and technological missions. These include communications satellites like Starlink; space stations such as the ISS; scientific satellites like the Hubble; Earth observation satellites from companies like Planet Labs, Umbra, and HawkEye 360; GPS; miniature CubeSats for education and research; and military/defense satellites.

Loading next visibility...
Identifier
62201, 2024-229K
Orbit
LEO
Last TLE update
7 hours ago
Origin
Manufacturer
SpaceX/Seattle
Mission
Operational Commercial Communications
Bus & Motor
STARLINK V2M, Unknown motor
Mass
730 kg wet, ~700 kg dry
Launch date (UTC)
2024-12-04 (7 months ago)
Launch vehicle
FALCON 9
Launch site
Air Force Eastern Test Range (AFETR)
Object type
Payload
Rocket body
Debris
Shape & HBR
Box + 2 Pan, 29 m
Radar Cross Section
33.884 m², Large (>1 m²)

Expand to show TLE details & history

TLE from 7 hours ago
0 STARLINK-32667
1 62201U 24229K   25190.04590519  .00012127  00000-0  44931-3 0  9997
2 62201  43.0016 206.3095 0003635 280.4194  79.6247 15.27589153 34331
Epoch: 2025-07-09T01:06Z
TLE epoch observation values (Epoch: 2025-07-09T01:06:06.208Z)
Latitude
-0.00008°
Longitude
-97.44862°
Altitude
482.349 km
Speed
7.626 km/s
True Right ascension
13h 45m 14s
True Declination
0° 00' 00"
Sunlit
Object was in daylight at epoch
Visualization orbit readout
Latitude
-12.85566°
Longitude
94.95502°
Altitude
485.039 km
Speed
7.624 km/s
Apparent Right ascension
04h 55m 58s
Apparent Declination
-33° 24' 35"
Sunlit
Object is in daylight
Visualization observer readout
Local Sidereal Time
20:24:21
Azimuth
98.059° ESE
Elevation
-48.3°
Doppler factor
1
Orbital elements
Apogee altitude
487.461 km
Perigee altitude
482.472 km
Semi-major axis
6,863.104 km
Eccentricity
0.00036
Inclination
43.0016°
RAAN
206.3095°
Arg. of periapsis
280.4194°
True anomaly
Unknown
Mean anomaly
79.6247°
Eccentric anomaly
Unknown
Mean motion
3.81735 °/min
Orbital period
94.31 mins
BSTAR
0.00044931
Loading maneuver chart data...
Loading SW <> Apogee altitude chart data...
Loading historical data...
Loading historical data...
Loading historical data...
Loading historical data...
Loading historical data...
Loading historical data...
Loading historical data...

STARLINK-32667 Visibility forecast

Observer location: undefined°, undefined°

Span
Click to sort rows by Start time (UTC) header in descending order
Start Az.
Max El. time (UTC)
Max El. Az.
Max El.
End time (UTC)
End Az.
7 mins2025-07-09 09:22:43.884Z286.738° WNW2025-07-09 09:26:43.884Z134.487° SE41.969°2025-07-09 09:29:43.884Z114.769° SE
5 mins2025-07-10 03:59:43.884Z193.483° SSW2025-07-10 04:01:43.884Z137.978° SSE26.884°2025-07-10 04:04:43.884Z85.753° E
6 mins2025-07-10 05:37:43.884Z261.577° W2025-07-10 05:39:43.884Z288.98° WNW41.866°2025-07-10 05:43:43.884Z70.699° E
6 mins2025-07-10 07:16:43.884Z290.069° WNW2025-07-10 07:19:43.884Z25.96° NE37.329°2025-07-10 07:22:43.884Z79.508° E
|